Location: MAC-Johnson Site
(33.6264°N, 81.2093°W)
Time: 13:18:01
(UTC-04:00)

BlueWalker 3 - Visible Passes

Search period start: 08 September 2024 00:00
Search period end: 18 September 2024 00:00
Orbit: 476 x 487 km, 53.2° (Epoch: 07 September)

Date Brightness Start Highest point End Pass type
(mag) Time Alt. Az. Time Alt. Az. Time Alt. Az.
08 Sep 4.5 21:31:46 10° N 21:32:29 11° NNE 21:32:29 11° NNE visible
09 Sep 4.4 21:04:46 10° NNE 21:05:41 11° NNE 21:06:04 11° NE visible
10 Sep 4.8 22:13:09 10° NW 22:13:54 15° NW 22:13:54 15° NW visible
11 Sep 3.8 21:45:43 10° NW 21:47:32 26° NNW 21:47:32 26° NNW visible
12 Sep 2.7 21:18:15 10° NNW 21:21:12 41° N 21:21:12 41° N visible
13 Sep 2.4 20:50:45 10° NNW 20:54:18 41° NE 20:54:55 37° ENE visible
14 Sep 2.6 20:23:13 10° NNW 20:26:42 36° NE 20:28:42 20° E visible
14 Sep 4.7 22:01:48 10° W 22:02:57 15° W 22:02:57 15° W visible
15 Sep 2.8 19:55:40 10° NNW 19:59:03 32° NE 20:02:27 10° ESE visible
15 Sep 3.9 21:33:59 10° WNW 21:36:51 22° SW 21:36:51 22° SW visible
16 Sep 3.8 21:06:12 10° WNW 21:09:17 25° SW 21:10:49 19° SSW visible
17 Sep 3.6 20:38:22 10° WNW 20:41:37 28° SW 20:44:52 10° S visible
